Погода в Пальм Бич

Аруба     12°34′29″N   70°02′37″W
темп.,
°C
ветер,
м/с
пор.,
м/с
влажн.,
%
обл.,
%
осадки,
мм/ч
давл.,
гПа
погр.,
м
23 октября, сб
сб2323:00+28в1113835 0.0 10121078
02:00+28в1113815 0.0 10101114
05:00+28в1112785 0.4 10101107
08:00+28в1012805 0.8 10121120
11:00+28в10127717 0.9 10131079
14:00+28в1012775 1.6 10111072
17:00+28в1012805 0.1 10091068
20:00+28в11138132 0.1 10101165
24 октября, вс
вс2423:00+29в11137776 0.1 10121337
02:00+28в1113786 0.4 10111156
05:00+28в111380100 0.3 10101126
08:00+28в11138098 0.5 10121131
11:00+28в1012805 0.2 10141120
14:00+28в10127934 0.4 10111098
17:00+28в1012815 0.1 10101042
20:00+28в1011795 0.3 10121028
25 октября, пн
пн2523:00+28в1013795 0.0 10141141
02:00+28в1011755 0.0 10121049
05:00+28в1010745 0.3 10121123
08:00+28в1010765 0.4 10141070
11:00+28в911795 0.0 10151031
14:00+28в910765 0.1 10121035
17:00+28в910803 0.1 1010989
20:00+28в1011814 0.1 1012996
26 октября, вт
вт2623:00+28в1011795 0.2 10131003
02:00+28в10117715 0.4 1012993
05:00+28в10117879 0.1 10111018
08:00+28в10117873 0.6 1013969
11:00+28вюв9107827 1.1 1013920
14:00+28в89785 1.7 1010918
17:00+28в810805 0.0 1009925
20:00+28всв911835 0.1 1011991
27 октября, ср
ср2723:00+28в9118386 0.1 10111016
02:00+28в10118186 0.1 1010980
05:00+28в101181100 0.3 1009952
08:00+28вюв91180100 0.5 1011924
11:00+28вюв9107993 0.3 1012912
14:00+28в91078100 0.3 1009931
17:00+28в91082100 0.0 1008796
20:00+28всв10128347 0.5 1010733